SCP
0 0 0 0 0 -0 -0 -0 -0 -0 -0 -0 -0 -0 -0 -0 -0 -0 0 0 0 0 0 0 0 0 0 0 0 0 0 0 0 0 0 0 0 0 0 0 0 0 0 0 0 0 0 0 0
0 0 0 0 -0 -0 -0 -0 -0 -0 -0 -0 -0 -0 -0 -0 -0 -0 0 0 0 0 0 0 0 0 0 0 0 0 0 0 0 0 0 0 0 0 0 0 0 0 0 0 0 0 0 0 0
0 0 0 -0 -0 -0 0 -0 -0 -0 -0 -0 -0 -0 -0 -0 -0 -0 0 0 0 0 0 0 0 0 0 0 0 0 0 0 0 0 0 0 0 0 0 0 0 0 0 0 0 0 0 0 0
0 -0 -0 -0 0 0 -0 -0 -0 -0 -0 -0 -0 -0 -0 -0 -0 0 0 0 0 0 0 0 0 0 0 0 0 0 0 0 0 0 0 0 0 0 0 0 0 0 0 0 0 0 0 0 0
0 -0 -0 0 0 0 -0 -0 -0 -0 -0 -0 -0 -0 -0 -0 -0 0 0 0 0 0 0 0 0 0 0 0 0 0 0 0 0 0 0 0 0 0 0 0 0 0 0 0 0 0 0 0 0
0 -0 0 0 0 0 -0 -0 -0 -0 -0 -0 -0 -0 -0 -0 -0 0 0 0 0 0 0 0 0 0 0 0 0 0 0 0 0 0 0 0 0 0 0 0 0 0 0 0 0 0 0 0 0
0 0 0 0 0 0 0 -0 -0 -0 -0 -0 -0 -0 -0 -0 -0 0 0 0 0 0 0 0 0 0 0 0 0 0 0 0 0 0 0 0 0 0 0 0 0 0 0 0 0 0 0 0 0
0 0 0 0 0 0 0 -0 -0 -0 -0 -0 -0 0 0 0 0 0 0 0 0 0 0 0 0 0 0 0 0 0 0 0 0 0 0 0 0 0 0 0 0 0 0 0 0 0 0 0 0
0 0 0 0 0 0 0 0 -0 0 0 0 0 0 0 0 0 0 0 0 0 0 0 0 0 0 0 0 0 0 0 0 0 0 0 0 0 0 0 0 0 0 0 0 0 0 0 0 0
0 0 0 0 0 0 0 0 0 0 0 0 0 0 0 0 0 0 0 0 0 0 0 0 0 0 0 0 0 0 1 1 1 1 1 1 0 0 0 1 1 1 0 0 0 0 0 0 0
0 0 0 0 0 0 0 0 0 0 0 0 0 0 1 1 0 0 0 0 0 0 0 0 0 0 0 0 0 1 1 1 1 1 1 1 1 1 1 1 1 1 1 1 1 1 1 1 1
0 0 0 0 0 0 0 0 0 0 0 0 0 1 1 1 1 0 0 0 0 0 0 0 0 0 0 0 1 1 1 1 1 1 1 1 1 1 1 1 1 1 1 1 1 1 1 1 1
0 0 0 0 0 0 0 0 0 0 0 0 1 1 1 1 1 0 0 0 0 0 0 0 0 0 1 1 0 0 0 1 1 1 1 1 1 1 1 1 1 1 1 1 1 1 1 1 1
0 0 0 0 0 0 0 0 0 0 0 0 1 1 1 1 1 1 0 0 0 0 0 0 0 0 1 1 1 0 0 1 1 1 1 1 1 1 1 1 1 1 1 1 1 1 1 1 1
0 0 0 0 0 0 0 0 0 0 0 1 1 2 2 2 1 1 1 0 0 0 0 1 1 1 1 1 1 1 1 1 1 1 1 1 1 1 1 1 1 1 1 1 2 2 2 2 1
0 0 0 0 0 0 0 0 0 0 0 1 1 2 2 2 2 1 1 0 1 1 1 1 1 1 1 1 1 1 1 1 1 1 0 0 0 1 1 1 1 1 1 1 1 2 2 2 2
0 0 0 0 0 0 0 0 0 0 0 1 1 2 2 2 2 1 1 1 1 1 1 1 1 1 1 1 1 1 0 0 0 0 0 0 0 0 0 0 1 1 1 1 1 1 2 2 2
0 0 0 0 0 0 0 0 0 1 1 1 1 2 2 2 2 1 1 1 1 1 1 1 1 1 1 1 1 0 0 0 0 0 0 0 0 0 0 0 0 0 0 1 1 1 1 2 2
0 0 0 0 0 0 0 0 0 0 1 1 1 1 2 2 2 2 2 2 2 2 2 1 1 1 1 1 1 0 0 0 0 0 0 0 0 0 0 0 0 0 0 0 1 1 1 1 1
0 0 0 0 0 0 0 0 0 0 0 1 1 1 1 1 2 2 2 2 2 2 2 1 1 1 1 1 1 1 0 0 0 0 0 0 0 0 0 0 0 0 0 0 0 1 1 1 1
0 0 0 0 0 0 0 0 0 0 0 1 1 1 1 1 2 2 2 2 2 2 2 1 1 1 1 1 1 1 1 0 0 0 0 0 0 0 0 0 0 0 0 0 0 0 1 1 1
0 0 0 0 0 0 0 0 0 0 0 0 1 1 1 2 2 2 2 2 2 2 1 1 1 1 1 1 1 1 1 0 0 0 0 0 0 0 0 0 0 0 0 0 0 0 0 1 1
0 0 0 0 0 0 0 0 0 0 0 0 1 1 1 2 2 2 2 2 2 1 1 1 1 1 1 1 1 1 1 1 0 0 0 0 0 0 0 0 0 0 0 0 0 0 0 1 1
0 0 0 0 0 0 0 0 0 0 0 0 1 1 1 1 1 1 1 1 1 1 1 1 1 1 1 2 2 2 1 1 1 0 0 0 0 0 0 0 0 0 0 0 0 0 0 0 1
0 0 0 0 0 0 0 0 0 0 0 0 0 0 1 1 0 0 0 1 1 1 1 1 1 1 1 2 2 2 2 1 1 1 0 0 0 0 0 0 0 0 0 0 0 0 0 0 0
0 0 0 0 0 0 0 0 0 0 0 0 0 0 0 0 0 0 0 0 0 0 0 1 1 1 2 2 2 2 2 2 1 1 1 0 0 0 0 0 0 0 0 0 0 0 0 0 0
0 0 0 0 0 0 0 0 0 0 0 0 0 0 0 0 0 0 0 0 0 0 0 0 1 1 1 2 2 2 2 2 1 1 1 1 0 0 0 0 0 0 0 0 0 0 0 0 0
0 0 0 0 0 0 0 0 0 0 0 0 0 0 0 0 0 0 0 0 0 0 0 0 0 0 1 1 1 1 1 2 1 1 1 1 1 1 0 0 0 0 0 0 0 0 0 0 0
0 0 0 0 0 0 0 0 0 0 0 0 0 0 0 0 0 0 0 0 0 0 0 0 0 0 0 0 0 1 1 1 1 1 1 1 1 1 1 0 0 0 0 0 0 0 0 0 0
0 0 0 0 0 0 0 0 0 0 0 0 0 0 0 0 0 0 0 0 0 0 0 0 0 0 0 0 0 0 1 1 1 1 1 1 1 1 1 0 0 0 0 0 0 0 0 0 0
Wind_Speed
9 8 6 6 8 2 9 7 6 6 6 7 5 3 4 6 6 8 7 14 16 17 19 19 16 15 15 14 14 13 13 13 12 12 11 11 10 10 9 9 8 8 8 7 7 6 6 6 6
5 5 7 7 6 6 8 5 6 8 7 4 5 3 4 7 7 8 10 14 17 18 18 17 17 15 15 14 14 13 13 12 12 11 10 10 9 9 8 8 7 6 6 6 6 5 5 5 5
5 7 7 6 1 6 8 6 5 5 4 3 4 5 5 7 6 6 11 17 17 16 15 17 18 16 15 14 13 13 12 12 11 11 10 9 9 8 7 7 6 5 5 5 4 4 4 4 4
5 7 7 6 5 7 4 4 3 3 4 4 3 7 7 6 4 9 16 17 17 16 15 18 18 16 15 14 13 13 12 12 11 10 10 9 9 8 7 6 5 5 4 4 4 4 4 4 4
7 7 7 5 6 5 2 2 0 1 4 5 4 7 8 6 7 14 17 17 16 16 15 18 17 16 15 14 13 12 12 11 11 10 10 9 8 7 7 6 6 5 5 5 5 4 4 4 5
6 6 7 5 7 4 3 1 2 2 3 4 5 8 9 7 10 14 16 15 15 15 15 17 16 15 15 14 13 12 12 11 11 10 10 9 8 7 7 7 7 7 7 6 6 6 6 6 6
8 7 6 3 6 5 3 1 2 1 2 3 3 7 10 10 11 14 14 13 13 13 13 14 16 14 14 12 12 12 12 11 11 11 10 10 9 8 8 8 8 8 8 9 9 9 9 8 8
6 7 6 6 6 5 3 1 1 3 3 5 3 5 9 14 13 13 13 12 11 11 12 12 13 13 13 13 13 11 11 11 11 11 11 10 10 11 11 11 12 11 10 10 11 11 11 11 11
6 8 7 5 4 4 3 2 2 2 6 5 3 6 11 19 16 14 13 11 10 10 9 11 12 11 11 11 12 13 12 12 12 12 13 11 11 11 11 12 7 9 11 12 12 12 13 12 14
7 10 3 2 2 2 3 3 2 6 8 7 8 10 15 18 16 15 14 14 13 12 11 10 10 10 10 8 8 9 10 11 11 10 11 10 9 7 8 2 7 11 13 13 14 14 14 14 11
6 6 2 1 2 5 4 3 2 7 7 7 10 15 18 19 16 15 14 13 13 12 12 11 10 9 10 7 7 6 6 6 9 11 10 8 7 7 7 6 8 11 12 12 11 13 11 10 8
6 4 4 5 4 6 7 5 4 6 2 4 5 17 19 19 17 15 14 12 11 11 12 11 11 9 9 8 6 6 6 5 6 7 9 8 6 7 7 6 7 7 6 7 8 7 10 10 11
7 5 4 6 8 9 10 9 7 5 1 3 9 17 18 17 16 14 12 11 10 10 11 10 10 10 8 7 6 7 7 6 7 6 7 8 7 8 7 6 6 8 8 8 8 9 9 10 11
5 8 9 7 6 5 8 10 8 5 1 6 12 15 16 16 15 14 12 11 11 10 10 10 10 10 9 8 7 7 7 6 7 5 7 8 7 7 8 8 8 9 9 9 8 10 10 10 9
6 9 9 4 3 2 7 12 10 4 3 7 11 13 15 14 14 13 12 11 11 10 10 10 10 10 10 9 9 7 6 6 5 5 7 8 8 8 8 8 9 9 9 10 9 12 10 10 11
7 10 10 4 2 0 7 14 1 3 7 9 11 12 13 12 13 11 11 10 10 10 10 10 8 9 9 8 7 5 6 6 5 5 6 8 8 8 7 8 8 8 8 8 8 9 10 10 10
9 9 6 4 3 2 5 7 4 3 6 8 10 12 12 12 12 11 10 11 10 9 9 10 9 9 8 7 6 6 5 5 5 5 5 5 7 7 7 7 7 9 9 8 9 8 8 10 10
3 4 5 3 3 4 3 3 2 0 4 7 9 10 11 11 11 10 9 9 9 9 9 9 9 8 7 6 5 4 5 5 5 5 4 6 6 6 7 8 8 9 9 9 9 10 10 10 10
2 4 4 1 3 6 5 5 1 1 4 6 8 9 10 10 8 8 8 8 8 8 9 9 8 7 6 4 4 4 4 4 4 4 4 6 6 7 7 9 9 9 10 10 12 11 13 11 10
3 4 4 3 1 7 8 8 5 3 4 4 6 8 9 8 8 8 7 7 7 7 7 7 7 7 7 5 4 3 4 4 4 5 4 6 6 7 7 8 9 9 9 11 12 11 11 11 9
3 5 5 7 7 8 9 12 9 6 5 4 5 6 7 8 8 8 7 6 6 5 5 5 5 6 7 6 5 4 4 5 6 5 4 4 6 7 7 9 9 9 10 10 10 11 13 12 11
5 3 6 8 11 10 5 11 5 3 5 4 4 3 4 4 5 4 4 4 3 2 3 3 5 6 7 8 8 8 7 7 6 5 5 5 6 7 7 8 9 9 10 10 11 11 11 12 11
6 4 7 10 10 11 6 9 1 2 3 4 5 6 6 5 5 6 6 5 4 4 3 4 5 7 7 8 8 9 9 7 5 5 5 6 6 6 7 7 8 8 9 10 11 11 11 10 11
3 6 8 9 9 7 1 7 3 8 11 10 11 13 13 13 13 13 13 11 10 9 7 6 6 6 7 8 9 9 8 7 7 7 7 6 5 5 6 7 8 9 9 9 10 11 12 11 12
7 10 8 8 6 2 2 7 8 10 10 12 12 14 15 16 15 15 16 15 14 14 12 10 8 7 6 7 7 8 8 7 8 8 7 7 6 6 5 7 8 9 9 10 11 11 11 12 12
10 10 10 9 8 5 4 4 10 10 10 11 13 14 15 16 16 16 16 15 14 14 14 13 12 9 8 6 6 6 6 7 6 7 7 7 6 7 7 8 9 10 11 11 10 11 11 10 11
9 7 8 10 12 11 6 5 11 9 10 11 12 13 15 14 14 14 14 14 13 14 14 14 13 12 11 9 8 6 6 8 8 8 8 8 6 7 8 8 9 10 10 11 11 10 11 11 11
5 7 5 8 9 10 8 8 5 7 7 8 10 11 12 12 12 13 12 12 12 12 12 12 12 12 12 12 10 8 8 8 9 9 9 9 9 9 9 10 10 10 10 10 10 11 10 10 10
3 3 5 7 7 10 13 4 9 7 6 6 8 9 10 12 12 11 10 11 11 11 11 11 11 11 11 12 12 11 11 10 10 9 10 10 10 10 10 10 10 11 11 10 9 11 11 10 9
5 4 5 7 9 10 13 2 9 7 5 6 8 10 11 12 12 11 11 10 10 11 11 11 11 11 11 11 11 12 12 12 12 11 12 11 12 11 11 11 11 11 11 10 10 10 10 9 8
Wind_Direction
180 196 225 236 239 173 82 80 67 65 61 50 51 28 36 35 7 58 108 143 140 141 141 153 156 153 147 142 139 138 138 138 139 140 140 138 136 135 136 137 134 130 125 123 123 123 122 122 122
204 209 232 240 248 105 96 85 76 57 68 78 79 72 72 70 50 94 133 141 145 143 145 154 153 155 151 147 146 145 145 145 146 147 147 146 144 145 146 145 145 143 139 138 137 136 135 135 136
217 232 260 251 197 89 98 94 81 89 78 39 67 54 50 63 90 117 134 146 147 142 145 143 155 157 154 152 152 152 153 153 154 155 155 155 154 156 157 158 160 161 159 159 161 161 158 158 161
225 229 238 244 117 83 77 89 101 125 95 66 85 91 83 55 85 122 140 150 146 147 150 144 160 160 159 158 159 161 162 163 165 166 166 167 168 170 173 176 180 185 187 190 191 191 187 188 193
245 258 244 192 120 103 91 41 233 101 64 74 77 96 96 81 100 131 147 152 152 154 152 148 162 163 163 164 166 169 171 173 175 176 178 181 184 188 193 197 202 209 215 219 220 220 219 218 222
249 251 247 173 127 121 102 62 238 118 98 108 106 109 100 113 132 144 151 158 156 155 156 146 160 165 167 169 172 176 180 183 185 188 191 195 201 207 215 219 221 224 227 231 235 237 237 236 236
282 279 260 183 145 135 61 346 245 142 151 113 115 111 122 141 140 148 152 160 159 158 156 154 165 168 172 176 180 185 189 193 197 200 203 207 213 219 226 232 235 235 235 236 239 242 244 243 242
290 274 229 198 174 128 58 286 247 245 130 112 162 135 144 146 148 148 151 160 163 162 166 165 174 172 178 181 186 194 199 204 208 213 217 219 223 226 227 233 226 233 241 243 245 246 246 245 243
262 254 222 185 169 113 43 303 161 203 140 146 109 58 112 137 149 151 155 161 166 171 180 180 178 177 189 192 179 193 203 210 216 217 219 226 235 232 216 226 213 234 246 249 250 251 251 250 239
251 253 196 72 355 6 360 309 285 197 181 166 133 110 129 144 156 163 167 169 174 180 188 190 193 182 197 202 185 206 210 205 217 229 223 225 240 256 263 215 220 244 250 253 251 253 254 248 248
255 276 359 222 324 321 295 270 243 238 205 191 173 152 154 157 165 173 175 176 175 182 188 191 196 192 205 209 213 216 224 221 224 233 239 246 258 252 249 248 221 226 233 242 236 235 244 248 249
265 272 296 302 323 299 292 285 257 249 339 48 156 154 160 166 172 177 176 176 172 183 187 192 189 198 210 223 225 229 234 231 240 234 240 245 251 259 263 262 267 261 249 248 259 258 257 262 263
250 273 287 286 285 285 278 265 275 260 346 107 140 155 166 170 172 176 173 172 171 182 188 191 192 197 204 216 241 242 247 250 242 248 248 251 254 261 269 273 274 276 275 264 254 263 269 267 264
299 291 276 272 277 258 261 257 248 255 132 147 158 166 170 169 170 170 174 177 181 186 189 189 197 199 204 212 224 242 251 248 268 265 264 265 270 273 277 276 274 272 271 273 273 268 266 262 260
279 272 250 220 261 264 269 249 237 276 226 183 173 170 165 167 170 176 180 185 188 190 190 194 200 202 209 220 226 236 248 256 261 271 276 274 271 274 276 278 275 274 277 274 268 266 263 259 257
241 243 235 156 332 263 261 259 186 290 223 199 180 169 167 170 178 183 185 191 194 194 191 199 206 205 211 223 234 247 256 266 269 271 274 280 285 285 285 280 280 287 281 274 270 266 265 262 260
216 234 239 177 48 346 268 287 17 301 221 197 185 176 174 174 187 190 195 199 201 203 201 203 211 216 219 225 234 246 258 267 272 275 280 293 292 293 289 290 294 292 283 278 275 272 267 268 265
214 235 225 242 30 328 307 320 13 340 217 197 188 183 182 185 189 191 200 203 200 202 203 206 206 212 217 218 221 242 253 263 267 278 287 290 289 294 299 291 293 293 288 283 279 281 272 268 267
299 271 262 314 1 312 316 312 306 171 202 199 195 192 196 198 184 187 193 193 190 190 193 198 203 195 201 204 220 225 242 259 269 272 286 286 292 300 295 294 299 287 284 286 286 282 275 267 263
252 259 255 235 301 305 301 290 270 236 231 233 225 211 209 203 191 191 188 183 182 178 181 184 191 189 198 194 214 241 279 278 291 294 287 283 294 299 292 296 292 290 289 281 276 273 275 276 265
272 299 316 313 308 261 276 267 234 209 227 234 248 249 238 224 210 194 189 180 176 171 180 186 191 193 206 203 214 215 232 251 251 262 269 288 301 299 301 297 292 294 287 282 281 279 271 271 268
295 334 307 300 292 293 296 287 251 228 239 250 267 272 269 251 234 206 185 175 189 205 217 222 223 220 216 214 227 236 255 274 296 300 303 303 291 296 298 293 291 287 286 284 277 270 270 269 267
326 330 290 294 289 282 251 273 89 97 335 4 23 23 15 18 26 28 26 20 0 335 305 280 261 249 238 234 234 239 250 264 277 286 287 287 291 290 293 297 296 292 286 286 285 282 271 265 264
289 258 254 252 260 253 186 289 70 47 16 17 35 38 37 36 37 33 27 22 13 358 344 318 290 271 259 248 245 244 255 263 277 279 289 286 291 292 297 299 295 289 288 288 283 279 272 266 265
268 282 281 266 245 253 122 275 68 52 36 36 43 46 45 45 42 39 33 28 22 13 3 350 335 313 293 270 260 253 254 257 258 267 274 282 294 298 307 302 296 292 291 288 286 281 277 271 265
301 288 278 292 296 298 239 263 93 80 68 61 57 54 50 47 44 41 37 32 27 22 16 10 3 351 340 320 300 283 271 263 261 256 275 281 288 299 308 295 290 291 292 290 289 284 277 272 269
298 281 305 285 275 276 272 128 128 105 79 64 58 51 46 42 39 36 32 28 24 22 19 15 12 8 2 353 336 313 296 284 281 273 260 267 272 280 283 286 288 290 291 291 290 283 283 279 274
312 313 279 276 285 284 272 245 172 106 74 61 50 42 35 28 25 23 20 17 14 12 12 10 11 7 3 1 351 340 320 299 285 276 275 274 273 272 275 277 282 286 288 289 288 286 281 280 278
261 245 292 285 289 292 291 322 67 82 65 45 38 26 16 9 6 4 5 3 0 0 1 0 359 357 355 355 350 343 335 321 305 288 280 273 267 265 263 268 275 280 284 287 290 289 288 281 281
285 308 297 295 293 280 282 6 83 84 66 31 11 5 358 352 348 346 348 348 349 349 348 347 344 345 343 341 337 336 334 331 322 310 297 284 271 262 258 259 266 272 277 282 286 289 290 287 286